Khon Kaen, Thailand

3:52 PM +07 on September 25, 2017 (GMT +0700)
Khon Kaen

Weather History for VTUK - November, 2012

Change the Weather History Date:

Monday, November 19, 2012

  Actual Average Record
Temperature  
Mean Temperature 83 °F -  
Max Temperature 93 °F 86 °F - ()
Min Temperature 73 °F 64 °F - ()
Cooling Degree Days 18    
Growing Degree Days 33 (Base 50)    
Moisture  
Dew Point 72 °F    
Average Humidity 67    
Maximum Humidity 100    
Minimum Humidity 38    
Precipitation  
Precipitation 0.00 in 0.01 in - ()
Sea Level Pressure  
Sea Level Pressure 29.87 in    
Wind  
Wind Speed 2 mph ()    
Max Wind Speed 7 mph    
Max Gust Speed -    
Visibility 6.2 miles    
Events      
T = Trace of Precipitation, MM = Missing Value Source: Averaged Metar Reports

Daily Weather History Graph

Daily Weather History Graph

Search for Another Location

Airport or City:

Trip Planner

Search our weather history database for the weather conditions in past years. The results will help you decide how hot, cold, wet, or windy it might be!

Date:

Astronomy

Nov. 19, 2012 Rise Set
Actual Time 6:14 AM +07 5:33 PM +07
Civil Twilight 5:51 AM +07 5:56 PM +07
Nautical Twilight 5:25 AM +07 6:22 PM +07
Astronomical Twilight 4:59 AM +07 6:48 PM +07
Moon 11:12 AM +07 (11/19) 11:06 PM +07 (11/19)
Length of Visible Light 12h 05m
Length of Day
11h 19m
Waxing Crescent, 35% of the Moon is Illuminated
Nov 19
Waxing Crescent
Nov 20
First Quarter
Nov 28
Full
Dec 6
Last Quarter
Dec 13
New

Hourly Weather History & Observations

Time (+07) Temp. Heat Index Dew Point Humidity Pressure Visibility Wind Dir Wind Speed Gust Speed Precip Events Conditions
1:00 AM 77 °F - 69 °F 69% 29.88 in 6 mi Calm Calm - -   Scattered Clouds
4:00 AM 78.8 °F - 73.4 °F 83% 29.86 in - Variable 1.2 mph - N/A   Clear
6:00 AM 71.6 °F - 71.6 °F 100% 29.89 in 6.2 mi Calm Calm - N/A   Mostly Cloudy
7:00 AM 74 °F - 70 °F 82% 29.89 in 6 mi Calm Calm - -   Scattered Clouds
7:00 AM 73.4 °F - 71.6 °F 94% 29.89 in 6.2 mi Calm Calm - N/A   Scattered Clouds
8:00 AM 78.8 °F - 71.6 °F 78% 29.92 in - ENE 5.8 mph - N/A   Clear
9:00 AM 82.4 °F 87.2 °F 71.6 °F 70% 29.95 in 6.2 mi ENE 6.9 mph - N/A   Partly Cloudy
10:00 AM 86.0 °F 93.4 °F 73.4 °F 66% 29.95 in 6.2 mi Variable 4.6 mph - N/A   Scattered Clouds
11:00 AM 87.8 °F 93.8 °F 71.6 °F 58% 29.92 in 6.2 mi NE 6.9 mph - N/A   Scattered Clouds
1:00 PM 90 °F - 68 °F 38% 29.85 in 7 mi ENE 4.6 mph - -   Partly Cloudy
1:00 PM 89.6 °F 96.2 °F 71.6 °F 55% 29.86 in 6.2 mi ENE 4.6 mph - N/A   Mostly Cloudy
2:00 PM 91.4 °F 98.4 °F 71.6 °F 52% 29.83 in 6.2 mi Variable 4.6 mph - N/A   Mostly Cloudy
3:00 PM 89.6 °F 96.2 °F 71.6 °F 55% 29.83 in 6.2 mi North 4.6 mph - N/A   Mostly Cloudy
4:00 PM 89.6 °F 96.2 °F 71.6 °F 55% 29.83 in 6.2 mi Variable 2.3 mph - N/A   Mostly Cloudy
5:00 PM 89.6 °F 96.2 °F 71.6 °F 55% 29.83 in 6.2 mi Calm Calm - N/A   Mostly Cloudy
6:00 PM 86.0 °F 91.8 °F 71.6 °F 62% 29.83 in 6.2 mi WNW 2.3 mph - N/A   Mostly Cloudy
7:00 PM 85 °F - 71 °F 54% 29.83 in 6 mi Calm Calm - -   Scattered Clouds
7:00 PM 84.2 °F 90.9 °F 73.4 °F 70% 29.86 in 6.2 mi Calm Calm - N/A   Mostly Cloudy
8:00 PM 82.4 °F 88.2 °F 73.4 °F 74% 29.89 in 6.2 mi Calm Calm - N/A   Mostly Cloudy